Powrót do katalogu

CZ-6A DEB

AktywnyPO
NORAD 55550·DEBRIS·🇨🇳 China

Wystrzelony Nov 11, 2022 z Taiyuan Satellite Launch Center

Loading…

Następne Przeloty (najbliższe 24 godziny)

TLE

ŚwieżeSource: Space-Track

Epoka: Sep 14, 2026, 03:12 UTC

1 55550U 22151YY  26257.13397913  .00008887  00000-0  12810-2 0  9994
2 55550  98.6210 330.2580 0070897   0.0139   0.1057 14.74835902197220

Śledź CZ-6A DEB w czasie rzeczywistym z AllMySat

Download on the App Store